Change the Weather History Date:

Wednesday, July 25, 2012

  Actual Average Record
Temperature  
Mean Temperature 75 °F 72 °F  
Max Temperature 89 °F 84 °F 111 °F (1931)
Min Temperature 61 °F 59 °F 44 °F (1911)
Degree Days  
Heating Degree Days 0 0  
Month to date heating degree days 0 8  
Since 1 June heating degree days 31 84  
Since 1 July heating degree days 0 8  
Cooling Degree Days 10 7  
Month to date cooling degree days 330 166  
Year to date cooling degree days 555 281  
Since 1 June cooling degree days 513 258  
Growing Degree Days 29 (Base 50)    
Moisture  
Dew Point 68 °F    
Average Humidity 70    
Maximum Humidity 90    
Minimum Humidity 50    
Precipitation  
Precipitation 0.22 in 0.08 in 1.72 in (1972)
Month to date precipitation 2.44 2.51  
Year to date precipitation 10.42 13.35  
Sea Level Pressure  
Sea Level Pressure 29.69 in    
Wind  
Wind Speed 7 mph (NNW)    
Max Wind Speed 39 mph    
Max Gust Speed 49 mph    
Visibility 8 miles    
Events Rain , Thunderstorm    
T = Trace of Precipitation, MM = Missing Value Source: NWS Daily Summary

Daily Weather History Graph

Daily Weather History Graph

Search for Another Location

Airport or City:

Trip Planner

Search our weather history database for the weather conditions in past years. The results will help you decide how hot, cold, wet, or windy it might be!

Date:

Astronomy

Jul. 25, 2012 Rise Set
Actual Time 6:10 AM CDT 9:09 PM CDT
Civil Twilight 5:35 AM CDT 9:44 PM CDT
Nautical Twilight 4:50 AM CDT 10:28 PM CDT
Astronomical Twilight 3:56 AM CDT 11:21 PM CDT
Moon 1:42 PM CDT (7/25) No Moon Set
Length of Visible Light 16h 08m
Length of Day
14h 58m
Waxing Crescent, 42% of the Moon is Illuminated
Jul 25
Waxing Crescent
Jul 26
First Quarter
Aug 1
Full
Aug 9
Last Quarter
Aug 17
New

Hourly Weather History & Observations

Time (CDT) Temp. Heat Index Dew Point Humidity Pressure Visibility Wind Dir Wind Speed Gust Speed Precip Events Conditions
12:49 AM 73.4 °F - 71.6 °F 94% 29.69 in 8.0 mi West 10.4 mph - 0.00 in Rain , Thunderstorm Light Rain
12:53 AM 73.9 °F - 71.1 °F 91% 29.65 in 5.0 mi WNW 8.1 mph - 0.03 in Rain , Thunderstorm Heavy Rain
1:03 AM 75.2 °F - 71.6 °F 89% 29.67 in 10.0 mi NW 12.7 mph - 0.03 in Rain , Thunderstorm Light Rain
1:24 AM 73.4 °F - 71.6 °F 94% 29.64 in 9.0 mi North 10.4 mph - 0.03 in Rain Light Rain
1:53 AM 73.9 °F - 72.0 °F 93% 29.58 in 8.0 mi Calm Calm - 0.05 in Rain Light Rain
2:53 AM 73.9 °F - 71.1 °F 91% 29.55 in 5.0 mi North 10.4 mph - 0.00 in   Clear
3:24 AM 73.4 °F - 71.6 °F 94% 29.62 in 6.0 mi Calm Calm - N/A   Scattered Clouds
3:33 AM 73.4 °F - 71.6 °F 94% 29.63 in 6.0 mi Calm Calm - N/A   Mostly Cloudy
3:49 AM 73.4 °F - 71.6 °F 94% 29.63 in 6.0 mi North 4.6 mph - N/A Thunderstorm Overcast
3:53 AM 73.9 °F - 71.1 °F 91% 29.61 in 5.0 mi Calm Calm - N/A Thunderstorm Overcast
4:27 AM 73.4 °F - 71.6 °F 94% 29.65 in 5.0 mi NNW 9.2 mph - N/A   Overcast
4:36 AM 73.4 °F - 71.6 °F 94% 29.67 in 5.0 mi NW 8.1 mph - 0.02 in Thunderstorm Overcast
4:53 AM 73.9 °F - 72.0 °F 93% 29.69 in 6.0 mi West 18.4 mph 28.8 mph 0.02 in Thunderstorm Overcast
5:05 AM 71.6 °F - 66.2 °F 83% 29.72 in 5.0 mi NW 20.7 mph 36.8 mph 0.02 in Rain , Thunderstorm Thunderstorms and Rain
5:15 AM 71.6 °F - 66.2 °F 83% 29.69 in 10.0 mi NW 9.2 mph 20.7 mph 0.04 in Rain , Thunderstorm Light Thunderstorms and Rain
5:53 AM 71.1 °F - 66.9 °F 87% 29.65 in 10.0 mi NNW 8.1 mph - 0.05 in Rain Light Rain
6:53 AM 70.0 °F - 66.9 °F 90% 29.61 in 10.0 mi NNE 10.4 mph - 0.01 in   Partly Cloudy
7:17 AM 69.8 °F - 66.2 °F 88% 29.65 in 10.0 mi North 11.5 mph - 0.01 in   Partly Cloudy
7:53 AM 70.0 °F - 66.9 °F 90% 29.66 in 10.0 mi NNE 5.8 mph - 0.01 in   Scattered Clouds
8:53 AM 72.0 °F - 68.0 °F 87% 29.69 in 10.0 mi North 5.8 mph - 0.00 in   Scattered Clouds
9:02 AM 73.4 °F - 69.8 °F 88% 29.72 in 10.0 mi NNW 5.8 mph - N/A   Mostly Cloudy
9:11 AM 73.4 °F - 69.8 °F 88% 29.73 in 10.0 mi NW 6.9 mph - N/A   Mostly Cloudy
9:36 AM 73.4 °F - 69.8 °F 88% 29.73 in 10.0 mi NNW 6.9 mph - N/A   Overcast
9:53 AM 73.9 °F - 70.0 °F 87% 29.69 in 10.0 mi NNE 4.6 mph - N/A   Overcast
10:53 AM 80.1 °F 83.6 °F 71.1 °F 74% 29.69 in 10.0 mi NNW 10.4 mph - N/A   Clear
11:53 AM 82.0 °F 86.3 °F 71.1 °F 69% 29.68 in 10.0 mi NNW 11.5 mph - N/A   Clear
12:53 PM 84.0 °F 87.8 °F 69.1 °F 61% 29.68 in 10.0 mi NNW 9.2 mph - N/A   Clear
1:53 PM 86.0 °F 89.4 °F 68.0 °F 55% 29.69 in 10.0 mi NNW 5.8 mph - N/A   Clear
2:53 PM 88.0 °F 90.7 °F 66.9 °F 49% 29.69 in 10.0 mi West 5.8 mph - N/A   Clear
3:53 PM 89.1 °F 92.1 °F 66.9 °F 48% 29.69 in 10.0 mi Calm Calm - 0.00 in Rain Light Rain
4:14 PM 87.8 °F 89.4 °F 64.4 °F 46% 29.71 in 10.0 mi East 4.6 mph - 0.00 in Thunderstorm Mostly Cloudy
4:30 PM 73.4 °F - 62.6 °F 69% 29.77 in 4.0 mi NNW 29.9 mph 49.5 mph 0.00 in Rain , Thunderstorm Thunderstorms and Rain
4:33 PM 71.6 °F - 62.6 °F 73% 29.74 in 1.8 mi North 25.3 mph 49.5 mph 0.02 in Rain , Thunderstorm Heavy Thunderstorms and Rain
4:40 PM 73.4 °F - 60.8 °F 65% 29.73 in 2.0 mi West 12.7 mph 31.1 mph 0.10 in Rain , Thunderstorm Thunderstorms and Rain
4:46 PM 73.4 °F - 62.6 °F 69% 29.73 in 8.0 mi WSW 16.1 mph 24.2 mph 0.11 in Rain , Thunderstorm Light Thunderstorms and Rain
4:53 PM 73.0 °F - 63.0 °F 71% 29.70 in 10.0 mi SW 6.9 mph - 0.11 in Rain , Thunderstorm Light Thunderstorms and Rain
5:38 PM 80.6 °F 82.7 °F 66.2 °F 61% 29.73 in 10.0 mi SSE 8.1 mph - N/A   Clear
5:53 PM 80.1 °F 82.1 °F 66.0 °F 62% 29.71 in 10.0 mi East 17.3 mph - N/A   Clear
6:53 PM 75.0 °F - 64.9 °F 71% 29.72 in 10.0 mi SE 8.1 mph - N/A   Partly Cloudy
7:53 PM 75.9 °F - 64.9 °F 69% 29.72 in 10.0 mi Calm Calm - N/A   Clear
8:53 PM 72.0 °F - 66.0 °F 81% 29.74 in 10.0 mi WSW 4.6 mph - N/A   Clear
9:53 PM 72.0 °F - 64.9 °F 78% 29.76 in 10.0 mi NNW 3.5 mph - N/A   Clear
10:53 PM 70.0 °F - 60.1 °F 71% 29.77 in 10.0 mi NNW 4.6 mph - N/A   Clear
11:53 PM 66.0 °F - 59.0 °F 78% 29.76 in 10.0 mi Calm Calm - N/A   Clear